Regional Weather Roundup
Issued by NWS Little Rock, AR

Home | Current Version | Previous Version | Graphics & Text | Print | Product List | Glossary On
Versions: 1 2 3 4 5 6 7 8 9 10 11 12 13 14 15 16 17 18 19 20 21 22 23 24 25 26 27
000
ASUS44 KLZK 222005
RWRLZK

WEATHER ROUNDUP FOR ARKANSAS
NATIONAL WEATHER SERVICE LITTLE ROCK AR
300 PM CDT TUE APR 22 2014

NOTE: "FAIR" INDICATES FEW OR NO CLOUDS BELOW 12,000 FEET WITH NO
SIGNIFICANT WEATHER AND/OR OBSTRUCTIONS TO VISIBILITY.

ARZ001-003-010-029-222100-
NORTHWEST ARKANSAS

CITY           SKY/WX    TMP DP  RH WIND       PRES   REMARKS
FAYETTEVILLE   SUNNY     72  41  32 NW9       30.03F
FORT SMITH     SUNNY     80  37  21 N5        29.99F
HARRISON       SUNNY     73  32  22 NW8       30.02F
BENTONVILLE    SUNNY     70  36  28 N7        30.05F
ROGERS         SUNNY     68  35  29 N9        30.05F
SILOAM SPGS    SUNNY     72  39  30 N9        30.05F
HIGHFILL       SUNNY     72  38  29 N8        30.04F
SPRINGDALE     SUNNY     70  36  28 NW6G16    30.05F
$$

ARZ004-005-016-222100-
NORTH CENTRAL ARKANSAS

CITY           SKY/WX    TMP DP  RH WIND       PRES   REMARKS
BATESVILLE     SUNNY     75  37  25 NW8       29.96F
FLIPPIN        SUNNY     73  36  25 NW12      30.01F
MTN HOME       SUNNY     74  30  19 VRB6      29.99F
$$

ARZ040-041-222100-
WEST CENTRAL ARKANSAS

CITY           SKY/WX    TMP DP  RH WIND       PRES   REMARKS
MENA           SUNNY     79  45  29 NE6       30.00F
MOUNT IDA      SUNNY     79  45  29 VRB3      29.96F
$$

ARZ009-017-025-026-028-222100-
NORTHEAST ARKANSAS

CITY           SKY/WX    TMP DP  RH WIND       PRES   REMARKS
CORNING          N/A     75  39  27 NE7       29.96F
JONESBORO      SUNNY     74  42  31 NW8       29.95F
NEWPORT        SUNNY     76  44  31 NW14      29.97F
WALNUT RIDGE   SUNNY     75  41  29 NE10      29.96F
BLYTHEVILLE    SUNNY     76  45  33 N15G25    29.94F
NW BLYTHEVILLE SUNNY     75  48  38 N7        29.94F
$$

ARZ022-023-033-042-044-222100-
CENTRAL ARKANSAS

CITY           SKY/WX    TMP DP  RH WIND       PRES   REMARKS
LITTLE ROCK    MOSUNNY   79  42  26 VRB6      29.95F
N LITTLE ROCK  MOSUNNY   77  44  30 N10G16    29.95F
JACKSONVILLE   SUNNY     79  43  28 VRB7      29.95F
SEARCY         SUNNY     78  45  31 NW8       29.96F
HOT SPRINGS    SUNNY     79  45  29 VRB5      29.96F
RUSSELLVILLE   SUNNY     78  44  29 VRB5      29.96F
CLINTON        FAIR      79  43  27 W9        29.98F
$$

ARZ036-222100-
EAST ARKANSAS

CITY           SKY/WX    TMP DP  RH WIND       PRES   REMARKS
WEST MEMPHIS   MOSUNNY   75  56  51 N13       29.93F
$$

ARZ050-053-066-070-073-222100-
SOUTHWEST ARKANSAS

CITY           SKY/WX    TMP DP  RH WIND       PRES   REMARKS
ARKADELPHIA    FAIR      79  55  43 VRB5      29.96F
CAMDEN         SUNNY     81  57  44 MISG      29.95F
TEXARKANA      SUNNY     79  59  50 W3        29.97F
EL DORADO      PTSUNNY   76  60  57 CALM      29.96F
DE QUEEN       SUNNY     81  48  31 NE6       29.95F
$$

ARZ056-057-069-222100-
SOUTHEAST ARKANSAS

CITY           SKY/WX    TMP DP  RH WIND       PRES   REMARKS
PINE BLUFF     SUNNY     76  48  37 N10G17    29.96F
STUTTGART      SUNNY     77  46  33 NW9       29.96F
MONTICELLO     MOSUNNY   76  61  59 VRB7      29.94F

$$





USA.gov is the U.S. government's official web portal to all federal, state and local government web resources and services.